Weather History for Izmir, Turkey

Change the Weather History Date:

Friday, March 15, 2013

  Actual Average Record
Temperature  
Mean Temperature 56 °F -  
Max Temperature 62 °F 62 °F 69 °F (2011)
Min Temperature 50 °F 42 °F 31 °F (2014)
Degree Days  
Heating Degree Days 9    
Growing Degree Days 6 (Base 50)    
Moisture  
Dew Point 47 °F    
Average Humidity 67    
Maximum Humidity 88    
Minimum Humidity 36    
Precipitation  
Precipitation 0.12 in - - ()
Sea Level Pressure  
Sea Level Pressure 29.53 in    
Wind  
Wind Speed 14 mph ()    
Max Wind Speed 24 mph    
Max Gust Speed 36 mph    
Visibility 6.4 miles    
Events Rain , Hail , Thunderstorm    
Averages and records for this station are not official NWS values.
T = Trace of Precipitation, MM = Missing Value Source: Averaged Metar Reports

Daily Weather History Graph

Daily Weather History Graph

Search for Another Location

Airport:

Trip Planner

Search our weather history database for the weather conditions in past years. The results will help you decide how hot, cold, wet, or windy it might be!

Date:

Astronomy

Mar. 15, 2013 Rise Set
Actual Time 6:22 AM EET 6:18 PM EET
Civil Twilight 5:56 AM EET 6:44 PM EET
Nautical Twilight 5:25 AM EET 7:15 PM EET
Astronomical Twilight 4:54 AM EET 7:46 PM EET
Moon 8:04 AM EET (3/15) 10:10 PM EET (3/15)
Length of Visible Light 12h 48m
Length of Day
11h 55m
Waxing Crescent, 13% of the Moon is Illuminated
Mar 15
Waxing Crescent
Mar 19
First Quarter
Mar 27
Full
Apr 3
Last Quarter
Apr 10
New

Hourly Weather History & Observations

Time (EET) Temp. Dew Point Humidity Pressure Visibility Wind Dir Wind Speed Gust Speed Precip Events Conditions
12:20 AM 66.2 °F 44.6 °F 46% 29.47 in 6.2 mi South 23.0 mph 35.7 mph N/A   Mostly Cloudy
12:50 AM 64.4 °F 44.6 °F 49% 29.47 in 6.2 mi South 20.7 mph - N/A   Mostly Cloudy
1:20 AM 64.4 °F 48.2 °F 56% 29.47 in 6.2 mi South 17.3 mph - N/A   Mostly Cloudy
1:50 AM 64.4 °F 48.2 °F 56% 29.47 in 6.2 mi South 23.0 mph - N/A   Mostly Cloudy
2:00 AM 65 °F 48 °F 43% 29.47 in 9 mi South 23.0 mph - -   Partly Cloudy
2:20 AM 64.4 °F 48.2 °F 56% 29.47 in 6.2 mi SSW 23.0 mph - N/A   Mostly Cloudy
2:50 AM 64.4 °F 50.0 °F 59% 29.44 in 6.2 mi South 24.2 mph - N/A Rain Light Rain Showers
3:20 AM 64.4 °F 51.8 °F 64% 29.44 in 6.2 mi SSW 24.2 mph - N/A   Mostly Cloudy
3:50 AM 62.6 °F 51.8 °F 68% 29.44 in 6.2 mi South 24.2 mph - N/A   Mostly Cloudy
4:02 AM 62.6 °F 53.6 °F 72% 29.44 in 6.2 mi South 24.2 mph - N/A Rain Light Rain Showers
4:09 AM 62.6 °F 53.6 °F 72% 29.44 in 6.2 mi South 23.0 mph - N/A Rain , Thunderstorm Light Thunderstorms and Rain
4:20 AM 60.8 °F 55.4 °F 82% 29.44 in 6.2 mi SSW 19.6 mph - N/A Rain , Thunderstorm Light Thunderstorms and Rain
4:50 AM 55.4 °F 51.8 °F 88% 29.47 in 6.2 mi WSW 12.7 mph - N/A Rain Light Rain Showers
5:20 AM 57.2 °F 50.0 °F 77% 29.47 in 6.2 mi SW 8.1 mph - N/A   Mostly Cloudy
5:50 AM 57.2 °F 50.0 °F 77% 29.47 in 6.2 mi Variable 2.3 mph - N/A Rain Light Rain Showers
6:20 AM 57.2 °F 50.0 °F 77% 29.47 in 6.2 mi South 8.1 mph - N/A Rain Light Rain Showers
6:50 AM 55.4 °F 48.2 °F 77% 29.50 in 6.2 mi SW 4.6 mph - N/A Rain Light Rain Showers
7:20 AM 55.4 °F 48.2 °F 77% 29.50 in 6.2 mi Variable 3.5 mph - N/A   Mostly Cloudy
7:50 AM 55.4 °F 48.2 °F 77% 29.50 in 6.2 mi South 5.8 mph - N/A   Mostly Cloudy
8:00 AM 55 °F 49 °F 73% 29.51 in 9 mi South 5.8 mph - - Rain Light Rain Showers
8:20 AM 55.4 °F 50.0 °F 82% 29.50 in 6.2 mi South 4.6 mph - N/A   Mostly Cloudy
8:50 AM 57.2 °F 48.2 °F 72% 29.50 in 6.2 mi SSE 9.2 mph - N/A   Mostly Cloudy
9:09 AM 57.2 °F 48.2 °F 72% 29.50 in 6.2 mi SW 6.9 mph - N/A Rain Light Rain Showers
9:20 AM 57.2 °F 48.2 °F 72% 29.50 in 6.2 mi SW 6.9 mph - N/A Rain Light Rain Showers
9:50 AM 57.2 °F 46.4 °F 67% 29.53 in 6.2 mi SW 12.7 mph - N/A   Mostly Cloudy
10:20 AM 57.2 °F 46.4 °F 67% 29.53 in 6.2 mi West 9.2 mph - N/A Rain Light Rain Showers
10:50 AM 59.0 °F 46.4 °F 63% 29.53 in 6.2 mi SW 11.5 mph - N/A Rain Light Rain Showers
11:20 AM 60.8 °F 44.6 °F 55% 29.53 in 6.2 mi SW 17.3 mph - N/A   Mostly Cloudy
11:50 AM 60.8 °F 42.8 °F 52% 29.53 in 6.2 mi SW 17.3 mph - N/A   Mostly Cloudy
12:20 PM 62.6 °F 44.6 °F 52% 29.53 in 6.2 mi SW 16.1 mph - N/A   Mostly Cloudy
12:50 PM 60.8 °F 42.8 °F 52% 29.56 in 6.2 mi SW 18.4 mph 29.9 mph N/A   Mostly Cloudy
1:20 PM 62.6 °F 42.8 °F 48% 29.53 in 6.2 mi SW 18.4 mph - N/A   Mostly Cloudy
1:50 PM 62.6 °F 42.8 °F 48% 29.53 in 6.2 mi SW 20.7 mph - N/A   Mostly Cloudy
2:00 PM 62 °F 42 °F 36% 29.54 in 9 mi SW 20.7 mph - -   Partly Cloudy
2:20 PM 60.8 °F 44.6 °F 55% 29.53 in 6.2 mi WSW 15.0 mph 26.5 mph N/A   Mostly Cloudy
2:35 PM 57.2 °F 44.6 °F 63% 29.53 in 6.2 mi West 18.4 mph - N/A Rain , Thunderstorm Light Thunderstorms and Rain
2:45 PM 55.4 °F 44.6 °F 67% 29.53 in 6.2 mi West 19.6 mph 31.1 mph N/A Rain , Hail , Thunderstorm Light Thunderstorms with Hail
2:50 PM 55.4 °F 46.4 °F 72% 29.56 in 6.2 mi West 16.1 mph 28.8 mph N/A Rain , Thunderstorm Light Thunderstorms and Rain
3:20 PM 53.6 °F 48.2 °F 82% 29.53 in 6.2 mi SW 10.4 mph - N/A Rain , Thunderstorm Light Thunderstorms and Rain
3:50 PM 55.4 °F 48.2 °F 77% 29.53 in 6.2 mi SW 11.5 mph - N/A Rain , Thunderstorm Light Thunderstorms and Rain
4:20 PM 57.2 °F 48.2 °F 72% 29.53 in 6.2 mi SSW 13.8 mph - N/A   Mostly Cloudy
4:50 PM 59.0 °F 46.4 °F 63% 29.53 in 6.2 mi SW 16.1 mph - N/A   Mostly Cloudy
5:20 PM 57.2 °F 46.4 °F 67% 29.56 in 6.2 mi WSW 12.7 mph - N/A   Mostly Cloudy
5:50 PM 55.4 °F 44.6 °F 67% 29.56 in 6.2 mi SW 9.2 mph - N/A   Mostly Cloudy
6:20 PM 53.6 °F 44.6 °F 72% 29.56 in 6.2 mi South 9.2 mph - N/A   Mostly Cloudy
6:50 PM 55.4 °F 46.4 °F 72% 29.59 in 6.2 mi South 12.7 mph - N/A   Mostly Cloudy
7:20 PM 53.6 °F 46.4 °F 77% 29.59 in 6.2 mi South 9.2 mph - N/A   Mostly Cloudy
7:50 PM 53.6 °F 44.6 °F 72% 29.62 in 6.2 mi SSW 9.2 mph - N/A   Mostly Cloudy
8:00 PM 54 °F 45 °F 62% 29.62 in 9 mi SSW 8.1 mph - -   Partly Cloudy
8:20 PM 53.6 °F 44.6 °F 72% 29.62 in 6.2 mi South 5.8 mph - N/A   Mostly Cloudy
8:50 PM 53.6 °F 44.6 °F 72% 29.62 in 6.2 mi SSW 8.1 mph - N/A   Mostly Cloudy
9:20 PM 51.8 °F 44.6 °F 76% 29.62 in 6.2 mi South 5.8 mph - N/A   Mostly Cloudy
9:50 PM 51.8 °F 42.8 °F 71% 29.62 in 6.2 mi SE 6.9 mph - N/A   Mostly Cloudy
10:15 PM 53.6 °F 42.8 °F 67% 29.62 in 6.2 mi SE 9.2 mph - N/A Rain , Thunderstorm Light Thunderstorms and Rain
10:20 PM 53.6 °F 42.8 °F 67% 29.65 in 6.2 mi SSE 9.2 mph - N/A Rain , Thunderstorm Light Thunderstorms and Rain
10:50 PM 51.8 °F 42.8 °F 71% 29.65 in 6.2 mi SW 8.1 mph - N/A Rain , Thunderstorm Light Thunderstorms and Rain
11:20 PM 50.0 °F 42.8 °F 76% 29.65 in 6.2 mi South 10.4 mph - N/A   Mostly Cloudy
11:50 PM 51.8 °F 42.8 °F 71% 29.62 in 6.2 mi South 11.5 mph - N/A   Mostly Cloudy